Weather History for YWLM - September, 2013

Change the Weather History Date:

Saturday, September 7, 2013

  Actual Average Record
Temperature  
Mean Temperature 70 °F -  
Max Temperature 86 °F - - ()
Min Temperature 55 °F - - ()
Cooling Degree Days 6    
Growing Degree Days 20 (Base 50)    
Moisture  
Dew Point 51 °F    
Average Humidity 62    
Maximum Humidity 100    
Minimum Humidity 8    
Precipitation  
Precipitation 0.00 in - - ()
Sea Level Pressure  
Sea Level Pressure 30.16 in    
Wind  
Wind Speed 7 mph ()    
Max Wind Speed 21 mph    
Max Gust Speed 30 mph    
Visibility 6.1 miles    
Events      
T = Trace of Precipitation, MM = Missing Value Source: Averaged Metar Reports

Daily Weather History Graph

Daily Weather History Graph

Search for Another Location

Airport or City:

Trip Planner

Search our weather history database for the weather conditions in past years. The results will help you decide how hot, cold, wet, or windy it might be!

Date:

Astronomy

Sep. 07, 2013 Rise Set
Actual Time 6:02 AM AEST 5:39 PM AEST
Civil Twilight 5:38 AM AEST 6:03 PM AEST
Nautical Twilight 5:09 AM AEST 6:32 PM AEST
Astronomical Twilight 4:41 AM AEST 7:01 PM AEST
Moon 6:38 AM AEST (9/7) 7:24 PM AEST (9/7)
Length of Visible Light 12h 25m
Length of Day
11h 36m
Waxing Crescent, 3% of the Moon is Illuminated
Sep 7
Waxing Crescent
Sep 13
First Quarter
Sep 19
Full
Sep 27
Last Quarter
Oct 5
New

Hourly Weather History & Observations

Time (AEST) Temp. Dew Point Humidity Pressure Visibility Wind Dir Wind Speed Gust Speed Precip Events Conditions
12:00 AM 57 °F 55 °F 91% 30.21 in - Calm Calm - -  
12:00 AM 57.2 °F 55.4 °F 94% 30.18 in 6.2 mi Calm Calm - N/A   Unknown
12:30 AM 57.2 °F 55.4 °F 94% 30.18 in 6.2 mi WNW 5.8 mph - N/A   Unknown
1:00 AM 58 °F 57 °F 94% 30.20 in - WNW 6.9 mph - -  
1:00 AM 57.2 °F 57.2 °F 100% 30.18 in 6.2 mi WNW 6.9 mph - N/A   Unknown
1:30 AM 57.2 °F 57.2 °F 100% 30.18 in 5.6 mi NNW 5.8 mph - N/A   Unknown
1:46 AM 57.2 °F 57.2 °F 100% 30.18 in 3.7 mi NW 5.8 mph - N/A   Unknown
2:00 AM 57.2 °F 57.2 °F 100% 30.18 in - NW 5.8 mph - N/A   Unknown
2:24 AM 59.0 °F 59.0 °F 100% 30.18 in 4.3 mi NNW 6.9 mph - N/A   Unknown
2:30 AM 59.0 °F 57.2 °F 94% 30.15 in 5.0 mi NNW 6.9 mph - N/A   Unknown
3:00 AM 60 °F 58 °F 92% 30.18 in - NW 9.2 mph - -  
3:00 AM 60.8 °F 59.0 °F 94% 30.15 in 6.2 mi NW 9.2 mph - N/A   Unknown
3:30 AM 59.0 °F 57.2 °F 94% 30.18 in 6.2 mi WNW 10.4 mph - N/A   Unknown
4:00 AM 58 °F 57 °F 94% 30.19 in - NW 6.9 mph - -  
4:00 AM 59.0 °F 57.2 °F 94% 30.18 in 6.2 mi NW 6.9 mph - N/A   Unknown
4:30 AM 59.0 °F 57.2 °F 94% 30.18 in 6.2 mi NW 5.8 mph - N/A   Unknown
5:00 AM 57.2 °F 55.4 °F 94% 30.18 in 6.2 mi NW 4.6 mph - N/A   Unknown
5:30 AM 57.2 °F 55.4 °F 94% 30.18 in 6.2 mi NW 4.6 mph - N/A   Unknown
6:00 AM 55 °F 54 °F 93% 30.21 in - NW 6.9 mph - -  
6:00 AM 55.4 °F 53.6 °F 94% 30.18 in 6.2 mi NW 6.9 mph - N/A   Unknown
6:30 AM 59.0 °F 53.6 °F 82% 30.18 in 6.2 mi NW 8.1 mph - N/A   Unknown
7:00 AM 60 °F 55 °F 78% 30.22 in - WNW 6.9 mph - -  
7:00 AM 60.8 °F 55.4 °F 82% 30.21 in 6.2 mi WNW 6.9 mph - N/A   Unknown
7:30 AM 64.4 °F 53.6 °F 68% 30.21 in 6.2 mi WNW 10.4 mph - N/A   Unknown
8:00 AM 66.2 °F 50.0 °F 56% 30.21 in 6.2 mi WNW 12.7 mph - N/A   Unknown
8:30 AM 68.0 °F 50.0 °F 52% 30.21 in 6.2 mi NW 12.7 mph - N/A   Unknown
9:00 AM 70 °F 51 °F 40% 30.24 in - NW 10.4 mph - -  
9:00 AM 69.8 °F 51.8 °F 53% 30.21 in 6.2 mi NW 10.4 mph - N/A   Unknown
9:30 AM 73.4 °F 50.0 °F 44% 30.21 in 6.2 mi NW 9.2 mph - N/A   Unknown
10:00 AM 75 °F 49 °F 29% 30.22 in - NW 11.5 mph - -  
10:00 AM 75.2 °F 50.0 °F 41% 30.21 in 6.2 mi NW 11.5 mph - N/A   Unknown
10:30 AM 78.8 °F 46.4 °F 32% 30.18 in 6.2 mi WNW 17.3 mph - N/A   Unknown
11:00 AM 80.6 °F 46.4 °F 30% 30.18 in 6.2 mi NW 15.0 mph - N/A   Unknown
11:30 AM 82.4 °F 44.6 °F 26% 30.15 in 6.2 mi NW 16.1 mph - N/A   Unknown
12:00 PM 84.2 °F 41.0 °F 22% 30.15 in 6.2 mi WNW 17.3 mph - N/A   Unknown
12:17 PM 84.2 °F 35.6 °F 18% 30.15 in 6.2 mi WNW 18.4 mph 29.9 mph N/A   Unknown
12:30 PM 84.2 °F 35.6 °F 18% 30.12 in 6.2 mi WNW 20.7 mph - N/A   Unknown
1:00 PM 84.2 °F 33.8 °F 16% 30.12 in 6.2 mi WNW 20.7 mph - N/A   Unknown
1:30 PM 84.2 °F 35.6 °F 18% 30.12 in 6.2 mi WNW 17.3 mph - N/A   Unknown
2:00 PM 86.0 °F 37.4 °F 18% 30.09 in 6.2 mi WNW 13.8 mph - N/A   Unknown
2:30 PM 84.2 °F 35.6 °F 18% 30.09 in 6.2 mi NW 12.7 mph - N/A   Unknown
3:00 PM 86 °F 35 °F 8% 30.10 in - NW 15.0 mph - -  
3:00 PM 86.0 °F 35.6 °F 17% 30.09 in 6.2 mi NW 15.0 mph - N/A   Unknown
3:30 PM 84.2 °F 35.6 °F 18% 30.06 in 6.2 mi WNW 12.7 mph - N/A   Unknown
4:00 PM 83 °F 36 °F 10% 30.09 in - NW 9.2 mph - -  
4:00 PM 84.2 °F 35.6 °F 18% 30.06 in 6.2 mi NW 9.2 mph - N/A   Unknown
4:30 PM 84.2 °F 35.6 °F 18% 30.09 in 6.2 mi NW 8.1 mph - N/A   Unknown
5:00 PM 80.6 °F 41.0 °F 24% 30.09 in 6.2 mi NW 8.1 mph - N/A   Unknown
5:30 PM 75.2 °F 48.2 °F 38% 30.09 in 6.2 mi North 4.6 mph - N/A   Unknown
6:00 PM 71 °F 50 °F 37% 30.12 in - NNW 3.5 mph - -  
6:00 PM 69.8 °F 50.0 °F 49% 30.09 in 6.2 mi NNW 3.5 mph - N/A   Unknown
6:30 PM 66.2 °F 48.2 °F 52% 30.12 in 6.2 mi NNW 4.6 mph - N/A   Unknown
7:00 PM 65 °F 48 °F 43% 30.13 in - NW 5.8 mph - -  
7:00 PM 64.4 °F 48.2 °F 56% 30.12 in 6.2 mi NW 5.8 mph - N/A   Unknown
7:30 PM 64.4 °F 46.4 °F 52% 30.12 in 6.2 mi NNW 4.6 mph - N/A   Unknown
8:00 PM 62.6 °F 48.2 °F 59% 30.12 in 6.2 mi NNW 3.5 mph - N/A   Unknown
8:30 PM 66.2 °F 57.2 °F 73% 30.15 in 6.2 mi South 11.5 mph - N/A   Unknown
9:00 PM 67 °F 63 °F 81% 30.18 in - South 13.8 mph - -  
9:00 PM 68.0 °F 62.6 °F 83% 30.15 in 6.2 mi South 13.8 mph - N/A   Unknown
9:30 PM 66.2 °F 60.8 °F 83% 30.18 in 6.2 mi SW 10.4 mph - N/A   Unknown
10:00 PM 66 °F 61 °F 80% 30.19 in - SSW 11.5 mph - -  
10:00 PM 66.2 °F 60.8 °F 83% 30.18 in 6.2 mi SSW 11.5 mph - N/A   Unknown
10:30 PM 64.4 °F 60.8 °F 88% 30.18 in 6.2 mi SSW 9.2 mph - N/A   Unknown
11:00 PM 66.2 °F 62.6 °F 88% 30.18 in 6.2 mi SSW 9.2 mph - N/A   Scattered Clouds
11:10 PM 66.2 °F 62.6 °F 88% 30.18 in 6.2 mi SSW 8.1 mph - N/A   Mostly Cloudy
11:30 PM 66.2 °F 62.6 °F 88% 30.18 in 6.2 mi SSW 9.2 mph - N/A   Overcast